TimeCST,TemperatureF,Dew PointF,Humidity,Sea Level PressureIn,VisibilityMPH,Wind Direction,Wind SpeedMPH,Gust SpeedMPH,PrecipitationIn,Events,Conditions,WindDirDegrees,DateUTC
12:53 AM,48.0,37.0,66,29.96,10.0,SSE,17.3,25.3,N/A,,Overcast,160,2013-03-09 06:53:00
1:53 AM,48.0,37.9,68,29.96,10.0,SSE,17.3,-,N/A,,Overcast,160,2013-03-09 07:53:00
2:53 AM,46.9,37.9,71,29.92,9.0,SSE,13.8,-,N/A,,Overcast,160,2013-03-09 08:53:00
3:53 AM,48.0,39.0,71,29.90,9.0,SSE,10.4,-,N/A,,Overcast,150,2013-03-09 09:53:00
4:53 AM,46.0,39.0,76,29.88,9.0,SE,16.1,-,N/A,,Mostly Cloudy,140,2013-03-09 10:53:00
5:43 AM,46.4,39.2,76,29.86,9.0,SSE,16.1,24.2,N/A,,Overcast,160,2013-03-09 11:43:00
5:53 AM,46.9,39.0,74,29.87,10.0,SSE,12.7,-,N/A,,Overcast,150,2013-03-09 11:53:00
6:53 AM,46.0,39.0,76,29.85,9.0,SSE,16.1,-,N/A,,Overcast,150,2013-03-09 12:53:00
7:53 AM,48.9,39.0,69,29.83,10.0,SSE,13.8,-,N/A,,Overcast,160,2013-03-09 13:53:00
8:53 AM,48.9,39.0,69,29.82,8.0,SSE,11.5,-,N/A,,Mostly Cloudy,150,2013-03-09 14:53:00
9:53 AM,48.0,42.1,80,29.83,6.0,South,4.6,-,0.02,Rain,Light Rain,180,2013-03-09 15:53:00
10:53 AM,48.9,43.0,80,29.80,7.0,ESE,4.6,-,0.04,,Overcast,120,2013-03-09 16:53:00
11:53 AM,50.0,44.1,80,29.77,4.0,East,5.8,-,0.01,Rain,Light Rain,100,2013-03-09 17:53:00
12:53 PM,48.0,44.1,86,29.74,5.0,NE,3.5,-,0.00,,Overcast,50,2013-03-09 18:53:00
1:53 PM,48.9,46.0,90,29.72,2.0,SSE,8.1,-,0.12,Rain,Heavy Rain,150,2013-03-09 19:53:00
2:10 PM,48.2,46.4,93,29.69,3.0,SSE,9.2,-,0.06,Rain,Light Rain,160,2013-03-09 20:10:00
2:33 PM,50.0,46.4,87,29.70,2.5,South,11.5,-,0.07,Rain-Thunderstorm,Light Thunderstorms and Rain,170,2013-03-09 20:33:00
2:53 PM,52.0,48.9,89,29.70,2.0,South,12.7,-,0.21,Rain-Thunderstorm,Thunderstorms and Rain,180,2013-03-09 20:53:00
3:05 PM,51.8,50.0,94,29.70,1.5,South,12.7,-,0.07,Rain-Thunderstorm,Thunderstorms and Rain,170,2013-03-09 21:05:00
3:14 PM,51.8,50.0,94,29.69,3.0,South,10.4,-,0.11,Rain-Thunderstorm,Light Thunderstorms and Rain,170,2013-03-09 21:14:00
3:45 PM,51.8,51.8,100,29.69,4.0,South,4.6,-,0.11,Rain,Light Rain,180,2013-03-09 21:45:00
3:53 PM,52.0,51.1,97,29.69,4.0,SSW,4.6,-,0.11,,Overcast,200,2013-03-09 21:53:00
4:00 PM,51.8,51.8,100,29.69,1.8,WSW,3.5,-,0.01,Rain,Rain,240,2013-03-09 22:00:00
4:12 PM,51.8,51.8,100,29.69,3.0,Calm,Calm,-,0.02,Rain,Light Rain,0,2013-03-09 22:12:00
4:25 PM,51.8,51.8,100,29.69,2.0,Calm,Calm,-,0.02,Rain,Light Rain,0,2013-03-09 22:25:00
4:32 PM,51.8,51.8,100,29.69,0.8,Calm,Calm,-,0.02,Rain,Light Rain,0,2013-03-09 22:32:00
4:53 PM,52.0,51.1,97,29.68,0.5,NW,5.8,-,0.15,Fog-Rain,Light Rain,310,2013-03-09 22:53:00
4:56 PM,51.8,50.0,94,29.69,0.2,WNW,5.8,-,0.01,Fog-Rain,Light Rain,300,2013-03-09 22:56:00
5:08 PM,51.8,51.8,100,29.69,0.5,Calm,Calm,-,0.05,Fog-Rain,Rain,0,2013-03-09 23:08:00
5:18 PM,51.8,51.8,100,29.69,0.2,Calm,Calm,-,0.15,Fog-Rain-Thunderstorm,Heavy Thunderstorms and Rain,0,2013-03-09 23:18:00
5:32 PM,51.8,50.0,94,29.68,0.5,East,4.6,-,0.21,Fog-Rain-Thunderstorm,Thunderstorms and Rain,90,2013-03-09 23:32:00
5:53 PM,51.1,50.0,96,29.68,0.2,ESE,6.9,-,0.25,Fog-Rain-Thunderstorm,Light Thunderstorms and Rain,120,2013-03-09 23:53:00
6:07 PM,51.8,50.0,94,29.67,0.8,ESE,5.8,-,0.02,Rain-Thunderstorm,Light Thunderstorms and Rain,110,2013-03-10 00:07:00
6:14 PM,51.8,50.0,94,29.68,1.0,SE,5.8,-,0.03,Rain-Thunderstorm,Light Thunderstorms and Rain,130,2013-03-10 00:14:00
6:32 PM,51.8,50.0,94,29.67,1.0,ESE,8.1,-,0.03,,Overcast,110,2013-03-10 00:32:00
6:53 PM,51.1,50.0,96,29.66,1.0,SE,9.2,-,0.03,Rain,Light Rain,130,2013-03-10 00:53:00
7:15 PM,50.0,50.0,100,29.64,5.0,East,9.2,-,0.01,Rain,Light Rain,100,2013-03-10 01:15:00
7:27 PM,50.0,50.0,100,29.65,3.0,SE,10.4,-,0.03,Rain,Rain,130,2013-03-10 01:27:00
7:39 PM,50.0,48.2,94,29.65,4.0,SE,12.7,-,0.04,Rain,Light Rain,130,2013-03-10 01:39:00
7:53 PM,50.0,48.9,96,29.65,3.0,SE,17.3,-,0.05,Rain,Light Rain,130,2013-03-10 01:53:00
8:53 PM,51.1,51.1,100,29.66,8.0,WSW,5.8,-,0.03,Rain,Light Rain,240,2013-03-10 02:53:00
9:03 PM,51.8,51.8,100,29.66,7.0,South,6.9,-,0.00,Rain,Light Rain,190,2013-03-10 03:03:00
9:38 PM,51.8,50.0,94,29.62,4.0,SE,16.1,-,0.03,Rain,Light Rain,130,2013-03-10 03:38:00
9:53 PM,52.0,51.1,97,29.60,4.0,SE,18.4,-,0.03,,Mostly Cloudy,140,2013-03-10 03:53:00
10:43 PM,51.8,51.8,100,29.62,3.0,SSE,12.7,-,N/A,,Mostly Cloudy,160,2013-03-10 04:43:00
10:53 PM,52.0,52.0,100,29.62,3.0,SSE,11.5,-,N/A,,Mostly Cloudy,160,2013-03-10 04:53:00
11:05 PM,53.6,53.6,100,29.62,0.5,SSE,12.7,-,N/A,,Overcast,160,2013-03-10 05:05:00
11:53 PM,52.0,52.0,100,29.60,0.5,SE,5.8,-,N/A,,Overcast,130,2013-03-10 05:53:00